TimeCDT,TemperatureF,Dew PointF,Humidity,Sea Level PressureIn,VisibilityMPH,Wind Direction,Wind SpeedMPH,Gust SpeedMPH,PrecipitationIn,Events,Conditions,WindDirDegrees,DateUTC
12:15 AM,62.6,57.2,82,30.15,10.0,Calm,Calm,-,N/A,,Clear,0,2012-10-05 05:15:00
12:35 AM,64.4,57.2,77,30.15,10.0,Calm,Calm,-,N/A,,Clear,0,2012-10-05 05:35:00
12:55 AM,64.4,57.2,77,30.15,10.0,SE,3.5,-,N/A,,Clear,130,2012-10-05 05:55:00
1:15 AM,64.4,57.2,77,30.15,10.0,SE,3.5,-,N/A,,Clear,140,2012-10-05 06:15:00
1:35 AM,64.4,57.2,77,30.15,10.0,Calm,Calm,-,N/A,,Clear,0,2012-10-05 06:35:00
1:55 AM,64.4,57.2,77,30.15,10.0,Calm,Calm,-,N/A,,Clear,0,2012-10-05 06:55:00
2:15 AM,62.6,55.4,77,30.15,10.0,Calm,Calm,-,N/A,,Clear,0,2012-10-05 07:15:00
2:35 AM,62.6,55.4,77,30.15,10.0,Calm,Calm,-,N/A,,Clear,0,2012-10-05 07:35:00
2:55 AM,62.6,55.4,77,30.15,10.0,Calm,Calm,-,N/A,,Clear,0,2012-10-05 07:55:00
3:15 AM,62.6,55.4,77,30.14,10.0,Calm,Calm,-,N/A,,Clear,0,2012-10-05 08:15:00
3:35 AM,62.6,55.4,77,30.14,10.0,Calm,Calm,-,N/A,,Clear,0,2012-10-05 08:35:00
3:55 AM,62.6,55.4,77,30.13,10.0,Calm,Calm,-,N/A,,Clear,0,2012-10-05 08:55:00
4:15 AM,62.6,55.4,77,30.13,10.0,Calm,Calm,-,N/A,,Clear,0,2012-10-05 09:15:00
4:35 AM,62.6,55.4,77,30.14,10.0,Calm,Calm,-,N/A,,Clear,0,2012-10-05 09:35:00
4:55 AM,62.6,55.4,77,30.13,10.0,Calm,Calm,-,N/A,,Clear,0,2012-10-05 09:55:00
5:15 AM,60.8,55.4,82,30.13,10.0,Calm,Calm,-,N/A,,Clear,0,2012-10-05 10:15:00
5:35 AM,60.8,55.4,82,30.14,10.0,Calm,Calm,-,N/A,,Clear,0,2012-10-05 10:35:00
5:55 AM,60.8,55.4,82,30.14,10.0,Calm,Calm,-,N/A,,Clear,0,2012-10-05 10:55:00
6:15 AM,60.8,53.6,77,30.14,8.0,Calm,Calm,-,N/A,,Clear,0,2012-10-05 11:15:00
6:35 AM,60.8,53.6,77,30.14,10.0,Calm,Calm,-,N/A,,Clear,0,2012-10-05 11:35:00
6:55 AM,60.8,53.6,77,30.14,8.0,Calm,Calm,-,N/A,,Clear,0,2012-10-05 11:55:00
7:15 AM,60.8,53.6,77,30.14,7.0,Calm,Calm,-,N/A,,Clear,0,2012-10-05 12:15:00
7:35 AM,60.8,55.4,82,30.15,8.0,South,3.5,-,N/A,,Clear,170,2012-10-05 12:35:00
7:55 AM,62.6,57.2,82,30.15,10.0,SSE,4.6,-,N/A,,Clear,160,2012-10-05 12:55:00
8:15 AM,64.4,57.2,77,30.15,10.0,SSE,5.8,-,N/A,,Clear,150,2012-10-05 13:15:00
8:35 AM,66.2,59.0,78,30.15,10.0,SSE,5.8,-,N/A,,Clear,150,2012-10-05 13:35:00
8:55 AM,69.8,60.8,73,30.16,10.0,SSE,5.8,-,N/A,,Clear,150,2012-10-05 13:55:00
9:35 AM,71.6,62.6,73,30.16,10.0,SSE,4.6,-,N/A,,Clear,150,2012-10-05 14:35:00
9:55 AM,73.4,64.4,73,30.16,10.0,SSE,4.6,-,N/A,,Clear,160,2012-10-05 14:55:00
10:15 AM,75.2,62.6,65,30.16,10.0,South,3.5,-,N/A,,Clear,180,2012-10-05 15:15:00
10:35 AM,77.0,62.6,61,30.15,10.0,SW,3.5,-,N/A,,Clear,220,2012-10-05 15:35:00
10:55 AM,78.8,64.4,61,30.15,10.0,South,6.9,-,N/A,,Clear,180,2012-10-05 15:55:00
11:15 AM,80.6,62.6,54,30.14,10.0,WSW,5.8,-,N/A,,Clear,240,2012-10-05 16:15:00
11:55 AM,80.6,60.8,51,30.13,10.0,SSW,5.8,-,N/A,,Mostly Cloudy,200,2012-10-05 16:55:00
12:15 PM,82.4,60.8,48,30.12,10.0,South,6.9,-,N/A,,Mostly Cloudy,170,2012-10-05 17:15:00
12:35 PM,82.4,59.0,45,30.11,10.0,SSE,8.1,-,N/A,,Partly Cloudy,160,2012-10-05 17:35:00
12:55 PM,80.6,59.0,48,30.10,10.0,South,8.1,-,N/A,,Partly Cloudy,170,2012-10-05 17:55:00
1:15 PM,82.4,59.0,45,30.10,10.0,SSW,4.6,-,N/A,,Partly Cloudy,210,2012-10-05 18:15:00
1:35 PM,82.4,57.2,42,30.08,10.0,Calm,Calm,-,N/A,,Partly Cloudy,0,2012-10-05 18:35:00
1:55 PM,82.4,59.0,45,30.07,10.0,WSW,6.9,-,N/A,,Clear,250,2012-10-05 18:55:00
2:15 PM,82.4,59.0,45,30.07,10.0,SW,6.9,-,N/A,,Clear,230,2012-10-05 19:15:00
2:35 PM,82.4,57.2,42,30.06,10.0,West,4.6,-,N/A,,Clear,270,2012-10-05 19:35:00
2:55 PM,82.4,57.2,42,30.05,10.0,Calm,Calm,-,N/A,,Clear,0,2012-10-05 19:55:00
3:15 PM,84.2,59.0,42,30.04,10.0,SSW,6.9,-,N/A,,Partly Cloudy,200,2012-10-05 20:15:00
3:35 PM,82.4,60.8,48,30.03,10.0,SSW,3.5,-,N/A,,Partly Cloudy,210,2012-10-05 20:35:00
3:55 PM,82.4,60.8,48,30.03,10.0,WSW,3.5,-,N/A,,Partly Cloudy,250,2012-10-05 20:55:00
4:15 PM,82.4,60.8,48,30.02,10.0,Calm,Calm,-,N/A,,Partly Cloudy,0,2012-10-05 21:15:00
4:35 PM,82.4,60.8,48,30.01,10.0,SSW,3.5,-,N/A,,Clear,200,2012-10-05 21:35:00
4:55 PM,82.4,59.0,45,30.00,10.0,SSW,3.5,-,N/A,,Clear,210,2012-10-05 21:55:00
5:15 PM,82.4,59.0,45,30.00,10.0,SW,4.6,-,N/A,,Clear,220,2012-10-05 22:15:00
5:35 PM,82.4,59.0,45,30.00,10.0,SW,3.5,-,N/A,,Clear,220,2012-10-05 22:35:00
5:55 PM,82.4,60.8,48,30.00,10.0,Calm,Calm,-,N/A,,Clear,0,2012-10-05 22:55:00
6:15 PM,78.8,64.4,61,30.01,10.0,Calm,Calm,-,N/A,,Clear,0,2012-10-05 23:15:00
6:35 PM,75.2,62.6,65,30.01,10.0,Calm,Calm,-,N/A,,Clear,0,2012-10-05 23:35:00
6:55 PM,73.4,62.6,69,30.01,10.0,Calm,Calm,-,N/A,,Clear,0,2012-10-05 23:55:00
7:15 PM,71.6,62.6,73,30.00,10.0,SSE,3.5,-,N/A,,Clear,160,2012-10-06 00:15:00
7:35 PM,71.6,62.6,73,30.00,10.0,Calm,Calm,-,N/A,,Clear,0,2012-10-06 00:35:00
7:55 PM,69.8,62.6,78,30.00,10.0,Calm,Calm,-,N/A,,Clear,0,2012-10-06 00:55:00
8:15 PM,69.8,62.6,78,30.01,10.0,Calm,Calm,-,N/A,,Clear,0,2012-10-06 01:15:00
8:35 PM,69.8,62.6,78,30.01,10.0,Calm,Calm,-,N/A,,Clear,0,2012-10-06 01:35:00
9:15 PM,68.0,62.6,83,30.02,10.0,Calm,Calm,-,N/A,,Clear,0,2012-10-06 02:15:00
9:35 PM,68.0,60.8,78,30.02,10.0,Calm,Calm,-,N/A,,Clear,0,2012-10-06 02:35:00
9:55 PM,68.0,60.8,78,30.02,10.0,Calm,Calm,-,N/A,,Clear,0,2012-10-06 02:55:00
10:15 PM,66.2,60.8,83,30.03,10.0,Calm,Calm,-,N/A,,Clear,0,2012-10-06 03:15:00
10:55 PM,66.2,60.8,83,30.03,10.0,Calm,Calm,-,N/A,,Clear,0,2012-10-06 03:55:00
11:15 PM,66.2,60.8,83,30.02,10.0,Calm,Calm,-,N/A,,Clear,0,2012-10-06 04:15:00
11:35 PM,64.4,60.8,88,30.02,10.0,Calm,Calm,-,N/A,,Clear,0,2012-10-06 04:35:00
11:55 PM,64.4,59.0,83,30.02,10.0,SSE,3.5,-,N/A,,Clear,160,2012-10-06 04:55:00